This is the latest recevied weather packets stored in our database for station/object YU7OR-2. If no packets are shown the sender has not sent any weather packets the latest 10 day(s).
| Time | Temp. | Humidity | Pressure | Rain* | Wind** | Luminosity | Snow |
|---|---|---|---|---|---|---|---|
| 1777963729 | 21.11° C | 47% | 1013.7 hPa | 0 mm | - | - | - |
| 1777963454 | 20.56° C | 47% | 1014 hPa | 0 mm | - | - | - |
| 1777963179 | 20.56° C | 46% | 1013.6 hPa | 0 mm | - | - | - |
| 1777962914 | 20.56° C | 48% | 1013.4 hPa | 0 mm | - | - | - |
| 1777962624 | 20° C | 47% | 1013.3 hPa | 0 mm | - | - | - |
| 1777962334 | 20° C | 47% | 1013.5 hPa | 0 mm | - | - | - |
| 1777962058 | 20° C | 47% | 1013.5 hPa | 0 mm | - | - | - |
| 1777961804 | 20° C | 47% | 1013.5 hPa | 0 mm | - | - | - |
| 1777961509 | 19.44° C | 48% | 1013.5 hPa | 0 mm | - | - | - |
| 1777961224 | 19.44° C | 48% | 1013.5 hPa | 0 mm | - | - | - |
| 1777960939 | 19.44° C | 47% | 1013.6 hPa | 0 mm | - | - | - |
| 1777960679 | 18.89° C | 47% | 1014 hPa | 0 mm | - | - | - |
| 1777960409 | 18.33° C | 48% | 1014 hPa | 0 mm | - | - | - |
| 1777960169 | 18.33° C | 49% | 1013.7 hPa | 0 mm | - | - | - |
| 1777959884 | 17.78° C | 50% | 1013.5 hPa | 0 mm | - | - | - |
| 1777959629 | 17.78° C | 50% | 1013.5 hPa | 0 mm | - | - | - |
| 1777959364 | 17.22° C | 49% | 1013.5 hPa | 0 mm | - | - | - |
| 1777959119 | 17.22° C | 49% | 1013.5 hPa | 0 mm | - | - | - |
| 1777958839 | 16.67° C | 50% | 1013.5 hPa | 0 mm | - | - | - |
| 1777958594 | 16.67° C | 50% | 1013.5 hPa | 0 mm | - | - | - |
| 1777958299 | 16.11° C | 49% | 1013.4 hPa | 0 mm | - | - | - |
| 1777958018 | 15.56° C | 50% | 1013.5 hPa | 0 mm | - | - | - |
| 1777957774 | 15° C | 51% | 1013.1 hPa | 0 mm | - | - | - |
| 1777957474 | 15° C | 50% | 1013.1 hPa | 0 mm | - | - | - |
| 1777957224 | 14.44° C | 52% | 1012.9 hPa | 0 mm | - | - | - |
* Rain latest hour (hover to see other rain measurements)
** Current wind speed in m/s (hover to see current wind gust speed)